Northolt, United Kingdom

8:07 AM BST on September 20, 2017 (GMT +0100)
Northolt Air Base

Weather History for EGWU - May, 2013

Change the Weather History Date:

Wednesday, May 29, 2013

  Actual Average Record
Temperature  
Mean Temperature 50 °F -  
Max Temperature 55 °F 67 °F 78 °F (2003)
Min Temperature 45 °F 52 °F 39 °F (2007)
Degree Days  
Heating Degree Days 15    
Moisture  
Dew Point 47 °F    
Average Humidity 86    
Maximum Humidity 94    
Minimum Humidity 71    
Precipitation  
Precipitation 0.02 in - - ()
Sea Level Pressure  
Sea Level Pressure 29.66 in    
Wind  
Wind Speed 5 mph ()    
Max Wind Speed 12 mph    
Max Gust Speed -    
Visibility 6.5 miles    
Events Rain    
Averages and records for this station are not official NWS values.
T = Trace of Precipitation, MM = Missing Value Source: Averaged Metar Reports

Daily Weather History Graph

Daily Weather History Graph

Search for Another Location

Airport or City:

Trip Planner

Search our weather history database for the weather conditions in past years. The results will help you decide how hot, cold, wet, or windy it might be!

Date:

Astronomy

May. 29, 2013 Rise Set
Actual Time 4:52 AM BST 9:06 PM BST
Civil Twilight 4:07 AM BST 9:51 PM BST
Nautical Twilight 3:02 AM BST 10:57 PM BST
Astronomical Twilight 1:31 AM BST 12:26 AM BST
Moon 12:02 AM BST (5/29) 9:52 AM BST (5/29)
Length of Visible Light 17h 43m
Length of Day
16h 13m
Waning Gibbous, 75% of the Moon is Illuminated
May 29
Waning Gibbous
May 31
Last Quarter
Jun 8
New
Jun 16
First Quarter
Jun 23
Full

Hourly Weather History & Observations

Time (BST) Temp. Windchill Dew Point Humidity Pressure Visibility Wind Dir Wind Speed Gust Speed Precip Events Conditions
12:50 AM 48 °F - 46 °F 88% 29.58 in 13 mi West 3.5 mph - -   Partly Cloudy
12:50 AM 48.2 °F - 46.4 °F 93% 29.56 in 6.2 mi West 3.5 mph - N/A   Mostly Cloudy
1:50 AM 48.2 °F - 44.6 °F 87% 29.56 in 6.2 mi West 3.5 mph - N/A   Mostly Cloudy
2:50 AM 46.4 °F 45.2 °F 42.8 °F 87% 29.56 in 6.2 mi WSW 3.5 mph - N/A   Mostly Cloudy
3:50 AM 47 °F - 44 °F 86% 29.60 in 19 mi WSW 2.3 mph - -   Mostly Cloudy
3:50 AM 46.4 °F - 44.6 °F 93% 29.59 in 6.2 mi WSW 2.3 mph - N/A   Mostly Cloudy
4:50 AM 46.4 °F 44.3 °F 42.8 °F 87% 29.59 in 6.2 mi SW 4.6 mph - N/A   Mostly Cloudy
5:50 AM 46.4 °F 45.2 °F 42.8 °F 87% 29.59 in 6.2 mi WSW 3.5 mph - N/A   Mostly Cloudy
6:50 AM 47 °F - 44 °F 85% 29.61 in 6 mi NW 3.5 mph - -   Mostly Cloudy
6:50 AM 46.4 °F 45.2 °F 44.6 °F 93% 29.59 in 6.2 mi NW 3.5 mph - N/A   Mostly Cloudy
7:50 AM 48.2 °F - 44.6 °F 87% 29.62 in 6.2 mi West 4.6 mph - N/A   Mostly Cloudy
8:50 AM 50.0 °F - 44.6 °F 82% 29.62 in 6.2 mi WNW 5.8 mph - N/A   Mostly Cloudy
9:50 AM 53 °F - 46 °F 71% 29.65 in 9 mi NW 6.9 mph - -   Overcast
9:50 AM 51.8 °F - 46.4 °F 82% 29.65 in 6.2 mi NW 6.9 mph - N/A   Mostly Cloudy
10:50 AM 53.6 °F - 46.4 °F 77% 29.65 in 6.2 mi NNW 8.1 mph - N/A   Mostly Cloudy
11:50 AM 51.8 °F - 48.2 °F 88% 29.65 in 4.3 mi NNW 8.1 mph - N/A Rain Light Rain
12:24 PM 50.0 °F - 46.4 °F 87% 29.68 in 2.5 mi North 11.5 mph - N/A Rain Light Rain
12:50 PM 51 °F - 48 °F 84% 29.69 in 4 mi NNW 8.1 mph - - Rain Light Rain
12:50 PM 50.0 °F - 48.2 °F 94% 29.68 in 3.7 mi NNW 8.1 mph - N/A Rain Light Rain
1:50 PM 50.0 °F - 48.2 °F 94% 29.68 in 3.7 mi NNW 9.2 mph - N/A   Haze
2:50 PM 53.6 °F - 48.2 °F 82% 29.68 in 6.2 mi NW 9.2 mph - N/A   Overcast
3:50 PM 53 °F - 49 °F 80% 29.69 in 4 mi NW 10.4 mph - - Rain Light Rain
3:50 PM 53.6 °F - 48.2 °F 82% 29.68 in 3.7 mi NW 10.4 mph - N/A Rain Light Rain
4:50 PM 53.6 °F - 50.0 °F 88% 29.68 in 3.7 mi NW 10.4 mph - N/A Rain Light Rain
5:50 PM 55.4 °F - 51.8 °F 88% 29.68 in 6.2 mi NNW 9.2 mph - N/A   Overcast
6:50 PM 55 °F - 50 °F 79% 29.73 in 12 mi North 9.2 mph - -   Partly Cloudy
6:50 PM 55.4 °F - 50.0 °F 82% 29.71 in 6.2 mi North 9.2 mph - N/A   Mostly Cloudy
7:50 PM 55.4 °F - 50.0 °F 82% 29.71 in 6.2 mi North 10.4 mph - N/A   Overcast
8:52 PM 53.6 °F - 50.0 °F 88% 29.74 in 6.2 mi North 8.1 mph - N/A   Overcast
9:50 PM 53.6 °F - 48.2 °F 82% 29.77 in 6.2 mi North 5.8 mph - N/A   Overcast
10:50 PM 53.6 °F - 50.0 °F 88% 29.77 in 6.2 mi North 5.8 mph - N/A   Mostly Cloudy
11:50 PM 53.6 °F - 50.0 °F 88% 29.77 in 6.2 mi NNW 8.1 mph - N/A   Overcast